Weather History for Norman Wells, NT

Change the Weather History Date:

Sunday, January 12, 2014

  Actual Average Record
Temperature  
Mean Temperature -44 °F -  
Max Temperature -38 °F -9 °F 21 °F (1997)
Min Temperature -49 °F -24 °F -49 °F (2014)
Degree Days  
Heating Degree Days 108    
Moisture  
Dew Point -53 °F    
Average Humidity 62    
Maximum Humidity 67    
Minimum Humidity 41    
Precipitation  
Precipitation 0.00 in 0.02 in - ()
Sea Level Pressure  
Sea Level Pressure 29.51 in    
Wind  
Wind Speed 2 mph ()    
Max Wind Speed 5 mph    
Max Gust Speed -    
Visibility 6.4 miles    
Events Fog , Snow    
Averages and records for this station are not official NWS values.
T = Trace of Precipitation, MM = Missing Value Source: Averaged Metar Reports

Daily Weather History Graph

Daily Weather History Graph

Search for Another Location

Airport:

Trip Planner

Search our weather history database for the weather conditions in past years. The results will help you decide how hot, cold, wet, or windy it might be!

Date:

Astronomy

Jan. 12, 2014 Rise Set
Actual Time 11:16 AM MST 3:55 PM MST
Civil Twilight 10:00 AM MST 5:11 PM MST
Nautical Twilight 8:51 AM MST 6:20 PM MST
Astronomical Twilight 7:50 AM MST 7:21 PM MST
Moon 1:41 PM MST (1/12) 8:05 AM MST (1/12)
Length of Visible Light 7h 11m
Length of Day
4h 39m
Waxing Gibbous, 90% of the Moon is Illuminated
Jan 12
Waxing Gibbous
Jan 15
Full
Jan 23
Last Quarter
Jan 30
New
Feb 6
First Quarter

Hourly Weather History & Observations

Time (MST) Temp. Windchill Dew Point Humidity Pressure Visibility Wind Dir Wind Speed Gust Speed Precip Events Conditions
12:00 AM -47.2 °F - -54.4 °F 66% 29.54 in 6.0 mi Variable 2.3 mph - N/A Fog Ice Crystals
1:00 AM -45.4 °F - -52.6 °F 66% 29.52 in 6.0 mi Calm Calm - N/A Fog Ice Crystals
1:32 AM -43.6 °F -57.7 °F -52.6 °F 60% 29.52 in 2.0 mi South 3.5 mph - N/A Fog Ice Crystals
2:00 AM -47.2 °F - -54.4 °F 66% 29.52 in 2.0 mi Calm Calm - N/A Fog Ice Crystals
2:22 AM -47.2 °F - -54.4 °F 66% 29.52 in 3.0 mi NNE 2.3 mph - N/A Fog Ice Crystals
3:00 AM -47.2 °F - -54.4 °F 66% 29.52 in 3.0 mi Calm Calm - N/A Fog Ice Crystals
4:00 AM -47.2 °F - -54.4 °F 66% 29.52 in 3.0 mi Calm Calm - N/A Fog Ice Crystals
5:00 AM -47 °F - -55 °F 41% 29.52 in 4 mi NNW 1.2 mph - - Snow Snow
5:00 AM -47.2 °F - -54.4 °F 66% 29.51 in 4.0 mi Calm Calm - N/A Fog Ice Crystals
6:00 AM -45.4 °F -59.7 °F -54.4 °F 60% 29.51 in 3.0 mi ESE 3.5 mph - N/A Fog Ice Crystals
6:48 AM -41.8 °F - -49.0 °F 67% 29.50 in 2.0 mi SSE 2.3 mph - N/A Fog Ice Crystals
7:00 AM -49.0 °F - -56.2 °F 66% 29.50 in 2.0 mi Variable 2.3 mph - N/A Fog Ice Crystals
7:29 AM -47.2 °F -65.0 °F -56.2 °F 59% 29.51 in 4.0 mi North 4.6 mph - N/A   Ice Crystals
8:00 AM -49.0 °F - -58.0 °F 59% 29.50 in 5.0 mi Calm Calm - N/A   Ice Crystals
9:00 AM -45.4 °F - -54.4 °F 60% 29.50 in 10.0 mi Calm Calm - N/A   Ice Crystals
10:00 AM -43.6 °F -57.7 °F -50.8 °F 67% 29.51 in 6.0 mi East 3.5 mph - N/A   Ice Crystals
10:41 AM -49.0 °F - -56.2 °F 66% 29.50 in 2.5 mi Calm Calm - N/A   Ice Crystals
11:00 AM -44 °F - -52 °F 44% 29.49 in 1 mi SSE 2.3 mph - - Snow Snow
11:00 AM -43.6 °F -57.7 °F -52.6 °F 60% 29.49 in 1.5 mi SSE 3.5 mph - N/A   Ice Crystals
12:00 PM -43.6 °F - -52.6 °F 60% 29.50 in 2.5 mi Calm Calm - N/A   Ice Crystals
12:53 PM -45.4 °F -59.7 °F -54.4 °F 60% 29.49 in 5.0 mi ENE 3.5 mph - N/A   Ice Crystals
1:00 PM -41.8 °F - -50.8 °F 60% 29.49 in 10.0 mi ESE 2.3 mph - N/A   Ice Crystals
2:00 PM -40.0 °F -53.5 °F -47.2 °F 67% 29.48 in 3.0 mi South 3.5 mph - N/A   Ice Crystals
3:00 PM -40.0 °F - -49.0 °F 60% 29.48 in 15.0 mi ENE 2.3 mph - N/A   Ice Crystals
4:00 PM -41.8 °F - -49.0 °F 67% 29.50 in 10.0 mi East 2.3 mph - N/A   Ice Crystals
5:00 PM -45 °F - -53 °F 45% 29.52 in 15 mi NE 3.5 mph - - Snow Snow
5:00 PM -45.4 °F -62.9 °F -52.6 °F 66% 29.52 in 15.0 mi NE 4.6 mph - N/A   Ice Crystals
6:00 PM -43.6 °F - -52.6 °F 60% 29.52 in 15.0 mi Calm Calm - N/A   Ice Crystals
7:00 PM -47.2 °F -61.8 °F -54.4 °F 66% 29.51 in 15.0 mi East 3.5 mph - N/A   Ice Crystals
8:00 PM -41.8 °F -55.6 °F -49.0 °F 67% 29.51 in 15.0 mi East 3.5 mph - N/A   Ice Crystals
9:00 PM -45.4 °F - -52.6 °F 66% 29.52 in 10.0 mi ESE 2.3 mph - N/A   Ice Crystals
10:00 PM -45.4 °F - -52.6 °F 66% 29.55 in 6.0 mi NNE 2.3 mph - N/A   Ice Crystals
11:00 PM -44 °F - -52 °F 45% 29.57 in 6 mi East 3.5 mph - - Snow Snow
11:00 PM -43.6 °F - -50.8 °F 67% 29.57 in 6.0 mi East 2.3 mph - N/A   Ice Crystals